Location: Unspecified
(50.7693°N, 0.0000°E)
Time: 02:40:57
(UTC+00:00)

deb Explorer IX - Pass Details

Date: 23 June 2019
Orbit: 539 x 1112 km, 38.8° (Epoch: 15 July)

Event Time Altitude Azimuth Distance (km) Brightness Sun altitude
Rises 18:16:48 0° 265° (W) 3,933 ? 15.7°
Reaches altitude 10° 18:20:45 10° 246° (WSW) 2,945 ? 15.1°
Maximum altitude 18:24:55 16° 211° (SSW) 2,441 ? 14.5°
Drops below altitude 10° 18:28:55 10° 175° (S) 2,798 ? 13.9°
Sets 18:32:33 0° 155° (SSE) 3,645 ? 13.4°
